Yakima, WA
on Monday, December 31, 2012

Monday
Previous Day Next Day
Daily Summary
 ActualAverageRecord
Temperature
Mean Temperature °F 28°F  
Max Temperature 30°F 35°F 55°F (1954)
Min Temperature 26°F 21°F -7°F (1978)
Degree Days
Heating Degree Days 37 37  
Month to date heating degree days 976 1128  
Since 1 July heating degree days 2214 2663  
Cooling Degree Days 0 0  
Month to date cooling degree days 0 0  
Year to date cooling degree days 667 472  
Moisture
Dew Point 21°F   
Average Humidity 75    
Maximum Humidity 81    
Minimum Humidity 69    
Precipitation
Precipitation 0.00 in 0.04 in 1.38 in (1996)
Month to date precipitation 2.13 1.53  
Year to date precipitation 9.32 8.25  
Snow
Snow 0.00 in 0.30 in 4.70 in (1968)
Month to date snowfall 13.5 9.4  
Year to date snowfall 35.7 21.6  
Since 1 July snowfall 14.2 13.0  
Snow Depth 0.00 in   
Wind
Wind Speed 4 mph   
Max Wind Speed 8 mph   
Max Gust Speed 17 mph   
Visibility 10 miles   
Events     

Key: T is trace of precipitation, MM is missing value
Source: NWS Daily Summary
Time(PST)TemperatureDew PointHumidity Pressure Visibility Wind DirectionWind SpeedGust SpeedPrecipitationEvents Conditions
12:53 AM 28.0°F 21.9°F 78% 30.38 in 10.0 miles WNW 5.8 mph - N/A   Overcast
1:53 AM 27.0°F 21.0°F 78% 30.39 in 10.0 miles WSW 3.5 mph - N/A   Overcast
2:49 AM 26.6°F 21.2°F 80% 30.34 in 10.0 miles West 3.5 mph - N/A   Overcast
2:53 AM 27.0°F 21.0°F 78% 30.39 in 10.0 miles West 3.5 mph - N/A   Overcast
3:20 AM 26.6°F 19.4°F 74% 30.34 in 10.0 miles West 3.5 mph - N/A   Overcast
3:53 AM 27.0°F 21.0°F 78% 30.39 in 10.0 miles West 3.5 mph - N/A   Overcast
4:53 AM 27.0°F 19.9°F 75% 30.38 in 10.0 miles West 5.8 mph - N/A   Overcast
5:53 AM 27.0°F 21.0°F 78% 30.37 in 10.0 miles NW 3.5 mph - N/A   Overcast
6:33 AM 26.6°F 19.4°F 74% 30.33 in 10.0 miles NNW 5.8 mph - N/A   Overcast
6:53 AM 26.1°F 19.9°F 78% 30.38 in 10.0 miles NW 3.5 mph - N/A   Overcast
7:53 AM 26.1°F 21.0°F 81% 30.39 in 10.0 miles West 5.8 mph - N/A   Overcast
8:53 AM 26.1°F 21.0°F 81% 30.40 in 9.0 miles West 3.5 mph - N/A   Overcast
9:53 AM 27.0°F 21.0°F 78% 30.40 in 10.0 miles WNW 4.6 mph - N/A   Overcast
10:53 AM 27.0°F 21.9°F 81% 30.41 in 10.0 miles WSW 4.6 mph - N/A   Overcast
11:34 AM 28.4°F 21.2°F 74% 30.36 in 10.0 miles West 6.9 mph - N/A   Overcast
11:45 AM 28.4°F 21.2°F 74% 30.35 in 10.0 miles West 6.9 mph - N/A   Overcast
11:53 AM 28.0°F 21.9°F 78% 30.40 in 9.0 miles West 5.8 mph - N/A   Overcast
12:53 PM 28.9°F 23.0°F 78% 30.40 in 10.0 miles West 5.8 mph - N/A   Overcast
1:53 PM 30.0°F 21.9°F 72% 30.41 in 10.0 miles North 6.9 mph - N/A   Overcast
2:09 PM 28.4°F 21.2°F 74% 30.38 in 10.0 miles NNW 5.8 mph - N/A   Overcast
2:53 PM 30.0°F 21.9°F 72% 30.43 in 10.0 miles NW 5.8 mph - N/A   Overcast
3:53 PM 30.0°F 21.0°F 69% 30.44 in 10.0 miles North 3.5 mph - N/A   Overcast
4:53 PM 28.9°F 21.9°F 75% 30.46 in 10.0 miles WSW 3.5 mph - N/A   Overcast
5:53 PM 28.9°F 21.9°F 75% 30.47 in 10.0 miles West 4.6 mph - N/A   Overcast
6:53 PM 28.9°F 21.9°F 75% 30.48 in 10.0 miles West 3.5 mph - N/A   Overcast
7:53 PM 28.9°F 21.9°F 75% 30.47 in 10.0 miles WSW 4.6 mph - N/A   Overcast
8:53 PM 28.9°F 21.9°F 75% 30.50 in 10.0 miles West 3.5 mph - N/A   Overcast
9:53 PM 30.0°F 21.0°F 69% 30.53 in 10.0 miles North 5.8 mph - N/A   Overcast
10:53 PM 28.9°F 21.0°F 72% 30.54 in 10.0 miles Calm Calm - N/A   Overcast
11:53 PM 28.9°F 21.9°F 75% 30.55 in 10.0 miles Calm Calm - N/A   Overcast
Moon Phase
Dec. 31 Jan. 04 Jan. 11 Jan. 18 Jan. 26
Sunrise:07:46 AM (PST) Moon Rise:08:14 PM (PST)
Sunset:04:24 PM (PST) Moon Set:09:18 AM (PST)

Copyright © 2014 The Weather Underground, Inc.